Flag Weather past 2 weeks in Little Rock, Arkansas, U.S.A.

Now
56 °F

Sunny.


Feels Like: 52 °F
Forecast: 39 / 59 °F
Wind: 18 mph from North

Location: Adams Field

Current Time: Oct 31, 2014 at 10:08:54 AM

Latest Report: Oct 31, 2014 at 8:53 AM


Visibility: 10 mi

Pressure: 30.19 "Hg

Humidity: 60%

Dew point: 42 °F

Location of Little RockLocation

Historic Weather in Little Rock — Graph

°F

Little Rock temperature yesterday

Maximum temperature yesterday: 73 °F (at 2:53 PM)
Minimum temperature yesterday: 46 °F (at 5:53 AM)
Average temperature yesterday: 58 °F

Past Weeks' High & Low Weather Summary

 TemperatureHumidityPressure
High87 °F (Oct 26, 2:53 PM)93% (Oct 26, 4:53 AM)30.27 "Hg (Oct 26, 4:53 AM)
Low46 °F (Oct 30, 5:53 AM)28% (Oct 29, 3:53 PM)29.85 "Hg (Oct 17, 3:53 AM)
Average63 °F68%30.07 "Hg
* Reported Oct 16 8:53 AM — Oct 31 8:53 AM, Little Rock, Weather by CustomWeather, © 2014

Note: Actual official high and low records may vary slightly from our data, if they occured in-between our weather recording intervals... More about our weather records

Advertising

Little Rock weather history for previous 24 hours

 ConditionsComfort  
Time TempWeatherWind HumidityBarometerVisibility
8:53 AM
Oct 31
56 °FSunny.18 mph60%30.19 "Hg10 mi
7:53 AM54 °FClear.12 mph64%30.15 "Hg10 mi
6:53 AM54 °FClear.14 mph64%30.11 "Hg10 mi
5:53 AM54 °FClear.12 mph67%30.09 "Hg10 mi
4:53 AM55 °FClear.12 mph64%30.07 "Hg10 mi
3:53 AM57 °FClear.12 mph62%30.06 "Hg10 mi
2:53 AM58 °FClear.12 mph62%30.06 "Hg10 mi
1:53 AM56 °FClear.7 mph70%30.06 "Hg10 mi
12:53 AM54 °FClear.8 mph77%30.05 "Hg10 mi
11:53 PM
Oct 30
54 °FClear.8 mph77%30.05 "Hg10 mi
10:53 PM55 °FPassing clouds.8 mph77%30.05 "Hg10 mi
9:53 PM57 °FPassing clouds.8 mph78%30.04 "Hg10 mi
8:53 PM58 °FClear.7 mph72%30.04 "Hg10 mi
7:53 PM60 °FClear.7 mph65%30.04 "Hg10 mi
6:53 PM63 °FSunny.5 mph54%30.04 "Hg10 mi
5:53 PM65 °FPassing clouds.7 mph51%30.04 "Hg10 mi
4:53 PM68 °FPartly sunny.8 mph51%30.04 "Hg10 mi
3:53 PM71 °FPartly sunny.8 mph36%30.04 "Hg10 mi
2:53 PM73 °FPartly sunny.10 mph32%30.05 "Hg10 mi
1:53 PM71 °FScattered clouds.6 mph35%30.08 "Hg10 mi
12:53 PM71 °FScattered clouds.8 mph36%30.12 "Hg10 mi
11:53 AM69 °FScattered clouds.5 mph39%30.15 "Hg10 mi
10:53 AM63 °FPassing clouds.No wind48%30.17 "Hg10 mi
Weather by CustomWeather, © 2014

See weather overviewHow to use our weather pages